Showing default

HONGYAN 1, 43914

Orbit data source: Space-Track

HONGYAN 1, 43914 is a payload satellite owned by Yidong Tongxin (CN) in LEO that was launched on Sat, 29 Dec 2018 UTC via a CHANG ZHENG 2D/YZ-3 launch vehicle from the Jiuquan Satellite Launch Center, China (JSC). Payload-class satellites include a variety of spacecraft equipped with specific instruments for various scientific and technological missions. These include communications satellites like Starlink; space stations such as the ISS; scientific satellites like the Hubble; Earth observation satellites from companies like Planet Labs, Umbra, and HawkEye 360; GPS; miniature CubeSats for education and research; and military/defense satellites.

Loading next visibility...
Identifier
43914, 2018-112F
Orbit
LEO
Country
Flag of CNCN / PRC
Related business
Manufacturer
DFH Shenzhen
Mission
Operational Commercial Communications
Bus & Motor
HONGYAN, Unknown motor
Mass
~500 kg wet, ~500 kg dry
Launch date (UTC)
2018-12-29 (7 years ago)
Launch vehicle
CHANG ZHENG 2D/YZ-3
Launch site
Jiuquan Satellite Launch Center, China (JSC)
Object type
Payload
Rocket body
Debris
Shape & HBR
Box + 2 Pan, 2.5 m
Radar Cross Section
3.085 m², Medium (>0.1 m² and < 1m²)

Expand to show TLE details & history
Last TLE update: 6 hours ago

TLE from 6 hours ago
0 HONGYAN 1
1 43914U 18112F   26035.19399646 -.00000128  00000-0  10977-5 0  9998
2 43914  50.0094   6.1759 0006684 212.7261 147.3204 13.43813057348656
Epoch: 2026-02-04T04:39Z
TLE epoch observation values (Epoch: 2026-02-04T04:39:21.294Z)
Latitude
-0.00001°
Longitude
161.97308°
Altitude
1,099.825 km
Speed
7.301 km/s
True Right ascension
00h 24m 42s
True Declination
0° 00' 00"
Sunlit
Object was in daylight at epoch
Visualization orbit readout
Latitude
Unknown
Longitude
Unknown
Altitude
Unknown
Speed
Unknown
Apparent Right ascension
Unknown
Apparent Declination
Unknown
Sunlit
N/A
Visualization observer readout
Local Sidereal Time
12:24:11
Azimuth
Unknown
Elevation
Unknown
Doppler factor
Unknown
Orbital elements
Apogee altitude
1,100.813 km
Perigee altitude
1,090.822 km
Semi-major axis
7,473.955 km
Eccentricity
0.00067
Inclination
50.0094°
RAAN
6.1759°
Arg. of periapsis
212.7261°
True anomaly
147.36173°
Mean anomaly
147.3204°
Eccentric anomaly
147.34107°
Mean motion
3.35906 °/min
Orbital period
107.17 mins
BSTAR
0.0000010977
Loading maneuver chart data...
Computing Atmospheric mass density...
Loading historical data...
Loading historical data...
Loading historical data...
Loading historical data...
Loading historical data...
Loading historical data...
Loading historical data...

Documentation

Showing up to 5 results
|